TimeCDT,TemperatureF,Dew PointF,Humidity,Sea Level PressureIn,VisibilityMPH,Wind Direction,Wind SpeedMPH,Gust SpeedMPH,PrecipitationIn,Events,Conditions,WindDirDegrees,DateUTC
12:15 AM,42.4,36.7,80,29.67,10.0,ENE,12.7,21.9,N/A,,Clear,70,2013-03-22 05:15:00
12:35 AM,41.0,35.6,81,29.69,10.0,NE,10.4,-,N/A,,Clear,50,2013-03-22 05:35:00
12:55 AM,40.8,35.6,82,29.72,10.0,NE,13.8,-,N/A,,Mostly Cloudy,50,2013-03-22 05:55:00
1:15 AM,38.7,32.9,80,29.73,10.0,NNE,16.1,-,N/A,,Overcast,30,2013-03-22 06:15:00
1:35 AM,37.4,32.0,81,29.76,10.0,NNE,17.3,-,N/A,,Overcast,20,2013-03-22 06:35:00
1:55 AM,35.6,30.9,83,29.77,10.0,NNE,21.9,26.5,N/A,,Overcast,20,2013-03-22 06:55:00
2:15 AM,34.5,29.8,83,29.78,10.0,NNE,23.0,28.8,N/A,,Overcast,20,2013-03-22 07:15:00
2:35 AM,33.8,29.7,85,29.79,10.0,NNE,23.0,-,N/A,,Overcast,30,2013-03-22 07:35:00
2:55 AM,33.6,29.3,84,29.80,7.0,NNE,23.0,27.6,N/A,,Overcast,30,2013-03-22 07:55:00
3:15 AM,32.2,28.8,87,29.81,5.0,NNE,20.7,29.9,N/A,,Overcast,30,2013-03-22 08:15:00
7:35 AM,30.7,27.7,88,29.84,7.0,NNE,9.2,-,N/A,,Clear,20,2013-03-22 12:35:00
7:55 AM,30.2,27.5,90,29.83,7.0,NNE,9.2,-,N/A,,Clear,20,2013-03-22 12:55:00
8:15 AM,30.2,27.5,90,29.84,7.0,NNE,8.1,-,N/A,,Clear,20,2013-03-22 13:15:00
8:35 AM,30.9,27.9,88,29.85,7.0,NNE,8.1,-,N/A,,Clear,30,2013-03-22 13:35:00
8:55 AM,31.1,27.5,87,29.87,10.0,NNE,4.6,-,N/A,,Clear,30,2013-03-22 13:55:00
9:15 AM,32.0,28.0,85,29.87,10.0,North,5.8,-,N/A,,Clear,10,2013-03-22 14:15:00
9:35 AM,32.9,28.6,84,29.88,10.0,North,8.1,-,N/A,,Clear,360,2013-03-22 14:35:00
9:55 AM,34.0,28.6,81,29.90,10.0,North,5.8,-,N/A,,Clear,350,2013-03-22 14:55:00
10:15 AM,34.9,28.2,77,29.91,10.0,NNW,5.8,-,N/A,,Clear,330,2013-03-22 15:15:00
10:35 AM,35.2,27.7,74,29.91,10.0,North,9.2,-,N/A,,Clear,350,2013-03-22 15:35:00
10:55 AM,35.6,27.5,72,29.92,10.0,North,8.1,-,N/A,,Clear,350,2013-03-22 15:55:00
11:15 AM,36.9,27.5,69,29.92,10.0,NNE,6.9,-,N/A,,Clear,20,2013-03-22 16:15:00
11:35 AM,37.6,27.7,67,29.92,10.0,NNW,6.9,-,N/A,,Clear,340,2013-03-22 16:35:00
11:55 AM,39.4,28.4,65,29.91,10.0,North,5.8,-,N/A,,Clear,10,2013-03-22 16:55:00
12:15 PM,40.5,28.8,63,29.91,10.0,North,5.8,-,N/A,,Clear,10,2013-03-22 17:15:00
12:35 PM,42.1,29.3,61,29.91,10.0,NNE,5.8,-,N/A,,Clear,20,2013-03-22 17:35:00
12:55 PM,43.9,29.8,58,29.90,10.0,NNE,3.5,-,N/A,,Clear,30,2013-03-22 17:55:00
1:15 PM,45.5,30.0,55,29.90,10.0,ENE,9.2,-,N/A,,Clear,60,2013-03-22 18:15:00
1:35 PM,46.6,29.8,52,29.89,10.0,North,4.6,-,N/A,,Clear,360,2013-03-22 18:35:00
1:55 PM,48.4,29.8,49,29.87,10.0,NE,6.9,-,N/A,,Clear,50,2013-03-22 18:55:00
2:15 PM,50.7,29.5,44,29.86,10.0,NE,9.2,-,N/A,,Clear,50,2013-03-22 19:15:00
2:35 PM,50.9,29.5,44,29.85,10.0,East,6.9,-,N/A,,Clear,90,2013-03-22 19:35:00
2:55 PM,50.4,28.4,43,29.83,10.0,East,4.6,-,N/A,,Clear,80,2013-03-22 19:55:00
3:15 PM,52.2,28.9,41,29.82,10.0,East,3.5,-,N/A,,Clear,90,2013-03-22 20:15:00
3:35 PM,53.1,29.1,40,29.80,10.0,East,6.9,-,N/A,,Clear,80,2013-03-22 20:35:00
3:55 PM,52.7,28.9,40,29.80,10.0,SSE,3.5,-,N/A,,Clear,150,2013-03-22 20:55:00
4:15 PM,54.1,28.9,38,29.79,10.0,SE,9.2,-,N/A,,Clear,130,2013-03-22 21:15:00
4:35 PM,53.6,29.3,39,29.79,10.0,East,4.6,-,N/A,,Clear,80,2013-03-22 21:35:00
4:55 PM,54.5,29.7,39,29.78,10.0,SE,9.2,-,N/A,,Clear,140,2013-03-22 21:55:00
5:15 PM,54.7,29.8,39,29.78,10.0,SE,5.8,-,N/A,,Clear,140,2013-03-22 22:15:00
5:35 PM,53.2,30.2,41,29.78,7.0,SSE,8.1,-,N/A,,Clear,160,2013-03-22 22:35:00
5:55 PM,54.0,30.4,41,29.76,10.0,SSE,9.2,-,N/A,,Clear,150,2013-03-22 22:55:00
6:15 PM,54.0,30.2,40,29.77,10.0,SSE,9.2,-,N/A,,Clear,160,2013-03-22 23:15:00
6:35 PM,53.2,30.2,41,29.77,10.0,SE,9.2,-,N/A,,Clear,140,2013-03-22 23:35:00
6:55 PM,52.5,30.2,42,29.77,10.0,SE,8.1,-,N/A,,Clear,130,2013-03-22 23:55:00
7:15 PM,51.3,30.2,44,29.78,10.0,SE,9.2,-,N/A,,Clear,140,2013-03-23 00:15:00
7:35 PM,49.3,30.4,48,29.79,10.0,SSE,5.8,-,N/A,,Clear,150,2013-03-23 00:35:00
7:55 PM,47.5,30.4,52,29.80,10.0,SE,6.9,-,N/A,,Clear,140,2013-03-23 00:55:00
8:15 PM,46.6,30.6,54,29.80,10.0,SE,6.9,-,N/A,,Clear,130,2013-03-23 01:15:00
8:35 PM,46.0,30.7,55,29.80,10.0,SE,10.4,-,N/A,,Clear,140,2013-03-23 01:35:00
8:55 PM,44.6,31.1,59,29.80,10.0,SE,10.4,-,N/A,,Clear,140,2013-03-23 01:55:00
9:15 PM,44.6,31.1,59,29.80,10.0,SE,11.5,-,N/A,,Clear,130,2013-03-23 02:15:00
9:35 PM,43.7,31.1,61,29.80,10.0,SE,13.8,-,N/A,,Clear,130,2013-03-23 02:35:00
9:55 PM,43.0,31.1,63,29.80,10.0,SE,11.5,-,N/A,,Clear,140,2013-03-23 02:55:00
10:15 PM,42.1,31.6,67,29.79,10.0,SE,16.1,-,N/A,,Clear,140,2013-03-23 03:15:00
10:35 PM,41.2,31.6,69,29.80,10.0,SE,13.8,19.6,N/A,,Clear,140,2013-03-23 03:35:00
10:55 PM,40.3,31.6,71,29.80,10.0,SE,18.4,23.0,N/A,,Clear,140,2013-03-23 03:55:00
11:15 PM,39.7,31.8,73,29.79,10.0,SE,19.6,-,N/A,,Clear,140,2013-03-23 04:15:00
11:35 PM,39.2,31.8,75,29.78,10.0,SE,15.0,19.6,N/A,,Clear,130,2013-03-23 04:35:00
11:55 PM,38.1,31.6,77,29.79,10.0,SE,15.0,-,N/A,,Clear,130,2013-03-23 04:55:00